Simultaneous Nadir Overpasses (SNOs) Predictions

Prediction of SNOs between GOES-17 and AQUA Satellite Orbit:

Table of predicted SNOs for the next 14.0 days since TLE Epoch: 6/15/2019
Index Date Time (GOES-17) GOES-17 Lat,Lon AQUA Lat,Lon Distance(km) Time Diff (sec)
1 06/15/2019 22:42:36 0.01,-137.19 0.19,-136.44 85.67 80
2 06/16/2019 11:03:51 -0.01,-137.21 0.89,-141.59 497.65 80
3 06/17/2019 22:30:24 0.01,-137.18 0.82,-133.48 420.98 80
4 06/18/2019 10:51:39 -0.01,-137.20 0.27,-138.64 162.58 80
5 06/20/2019 10:36:46 -0.00,-137.19 -0.30,-135.67 172.22 80
6 06/20/2019 22:58:11 0.00,-137.15 -0.77,-140.87 422.14 80
7 06/22/2019 22:45:58 -0.00,-137.13 -0.19,-137.90 87.79 80
8 06/24/2019 22:36:26 -0.01,-137.11 0.44,-134.94 246.24 80
9 06/25/2019 10:57:41 0.00,-137.13 0.66,-140.09 337.28 80
10 06/27/2019 10:42:49 0.01,-137.10 0.02,-137.14 4.26 80




NCC Satellite Simultaneous Nadir Overpasses (SNOs) Prediction Service
